Location: Conjunto Santa Maria
(19.9513°S, 43.9599°W)
Time: 13:43:43
(UTC+00:00)

Cosmos 2315 Rocket - Pass Details

Date: 21 January 2021
Orbit: 965 x 1003 km, 82.9° (Epoch: 03 March)

Event Time Altitude Azimuth Distance (km) Brightness Sun altitude
Exits shadow 23:51:55 47° 125° (SE) 1,263 4.4 -27.9°
Drops below altitude 10° 23:56:47 10° 164° (SSE) 2,728 6.6 -28.8°
Sets 23:59:21 0° 168° (SSE) 3,684 7.3 -29.3°
